Theta_e
283 284 284 283 282 283 281 282 278 281 281 286 288 289 290 292 294 295 297 298 299 299 301 302 304 305 305 299 298 299 297 298 298 299 299 299 299 298 298 297 297 297 297 297
280 283 283 280 283 283 283 283 283 284 283 290 290 292 291 292 293 294 296 297 298 299 300 302 303 304 304 304 299 298 297 297 299 298 298 298 298 297 297 296 296 296 296 296
275 281 280 277 281 282 282 284 284 280 286 290 289 290 291 292 293 294 296 297 298 298 300 301 303 304 304 304 303 298 297 297 298 297 297 297 297 296 296 296 295 295 295 295
276 278 271 281 286 285 284 286 287 287 289 290 290 291 293 295 293 295 295 296 297 298 299 302 305 304 305 304 300 299 296 297 297 297 296 296 296 296 296 296 295 295 295 295
274 274 279 281 284 283 282 282 288 287 288 289 291 291 291 294 295 295 295 296 297 299 300 303 304 304 304 300 298 299 296 297 297 297 296 296 295 295 295 295 295 294 295 295
278 272 270 280 285 289 289 278 288 289 288 289 290 283 287 293 294 295 296 297 297 299 299 303 304 305 299 296 296 298 297 297 297 297 296 295 296 295 295 295 294 294 294 295
276 275 278 284 287 291 277 280 289 290 290 290 287 290 292 294 294 295 296 296 297 298 300 303 304 301 295 293 293 298 299 298 297 297 296 297 296 295 294 294 294 294 294 294
276 273 271 287 287 281 286 290 290 291 291 290 291 292 292 293 294 294 295 295 297 298 302 303 303 298 292 291 294 300 299 298 296 296 296 295 295 294 294 294 293 293 293 293
280 279 286 289 288 291 292 290 291 291 292 292 291 291 292 292 293 294 294 296 297 299 303 303 301 295 291 292 297 299 298 296 295 295 295 294 293 293 292 293 293 292 292 292
281 285 286 288 290 292 292 291 293 293 292 292 291 292 292 292 293 294 295 295 297 300 301 300 298 293 292 292 295 296 295 293 293 293 292 293 293 293 292 292 292 291 291 291
283 285 287 289 291 292 292 292 292 292 292 292 292 292 292 292 293 293 294 295 297 299 301 299 296 293 292 292 293 293 292 292 291 293 292 292 293 293 293 294 294 292 292 292
281 288 288 288 292 293 291 290 291 290 291 293 293 291 292 292 293 293 293 295 296 299 301 297 295 294 294 293 292 291 290 291 292 291 292 292 292 293 296 295 296 296 296 294
288 291 291 291 292 292 290 291 291 290 291 291 292 292 292 291 292 293 292 293 295 296 299 297 296 295 296 294 293 292 292 291 292 292 292 292 293 293 291 296 298 298 298 298
290 291 288 289 288 292 292 291 292 291 291 292 292 292 292 291 291 290 290 292 294 296 297 298 296 295 297 296 296 295 295 295 293 293 293 293 293 292 292 292 292 292 296 297
290 291 291 291 292 292 290 289 288 288 289 290 291 290 290 289 290 290 290 291 293 296 297 296 294 294 297 297 295 294 294 294 293 293 293 292 291 291 291 291 291 291 292 295
290 290 290 288 287 288 287 287 286 287 288 289 289 289 289 289 290 290 290 290 291 293 296 297 293 295 297 296 295 294 294 295 293 292 292 291 291 290 290 290 291 291 292 292
285 284 285 285 285 285 285 286 287 287 288 289 288 288 288 288 288 288 289 291 294 295 295 297 295 297 297 296 295 294 294 295 294 292 291 291 290 291 292 291 291 292 292 292
287 287 286 285 285 284 285 286 287 289 287 287 287 287 287 287 287 288 289 290 292 292 294 296 296 297 296 296 295 294 293 293 292 291 291 291 291 293 292 292 291 290 291 291
286 285 285 285 286 286 286 287 288 287 287 287 287 287 288 288 288 289 289 290 291 291 294 295 297 295 294 295 294 293 292 291 291 291 292 293 292 291 290 290 290 291 290 290
285 286 286 286 287 287 288 287 287 287 288 288 288 287 287 287 288 288 289 290 292 294 296 296 294 294 295 296 294 292 292 292 291 291 291 290 290 289 290 289 290 290 290 289
285 286 286 287 286 287 287 288 288 286 287 287 286 285 286 288 289 289 288 289 292 295 295 296 294 294 294 294 292 292 292 291 290 290 289 289 289 289 289 289 289 289 289 288
286 287 286 285 286 287 288 288 287 287 286 286 286 288 291 289 289 290 292 292 294 295 294 293 293 295 294 294 292 291 290 290 290 290 289 289 288 288 288 289 289 289 290 289
287 286 287 286 286 286 287 287 287 286 285 285 285 286 288 290 292 290 288 293 293 294 293 294 296 296 294 291 291 290 290 289 289 289 289 289 288 288 288 288 288 288 289 289
286 287 287 289 288 287 285 286 286 287 286 286 286 286 287 287 287 291 293 294 295 294 294 295 295 294 292 291 291 290 290 290 290 289 289 288 288 288 288 287 286 287 288 289
287 287 287 286 285 285 286 286 286 286 286 286 287 287 288 289 288 289 291 292 294 293 294 296 295 293 290 291 290 290 290 290 289 289 288 288 288 288 288 287 288 288 288 289
287 286 287 287 286 286 287 287 285 286 286 286 286 287 288 289 289 289 290 291 291 292 291 291 291 291 291 291 290 290 289 290 289 289 288 287 287 287 287 287 287 288 289 290
287 289 287 287 287 287 287 287 285 284 286 285 285 287 288 288 289 289 289 288 289 289 289 290 291 291 291 291 290 289 289 290 289 289 288 287 287 287 286 287 287 288 289 289
Wind_Speed
16 18 19 22 22 25 21 21 19 25 25 26 20 22 22 16 19 18 19 19 19 20 17 15 16 17 13 13 13 14 15 16 16 16 16 17 17 17 17 16 15 15 14 12
19 20 20 19 24 22 21 20 18 18 19 9 13 20 19 21 19 20 21 19 19 22 24 19 17 16 16 13 13 13 15 17 15 15 16 17 17 17 17 15 15 14 14 13
13 16 12 12 15 10 20 20 18 16 18 10 19 23 21 20 20 19 20 21 22 23 21 19 17 16 18 17 13 13 16 16 16 17 17 18 17 17 17 16 16 15 13 12
7 4 7 8 15 19 16 16 15 17 7 14 17 25 20 17 18 15 20 23 23 22 21 18 17 18 19 17 15 12 15 16 17 18 18 17 18 18 17 15 16 14 13 12
3 4 13 16 6 8 14 23 12 5 18 23 22 22 19 11 14 21 23 21 20 22 20 18 17 18 18 18 16 14 17 18 18 19 19 19 19 19 16 15 14 14 12 12
4 9 12 19 15 7 4 18 2 20 23 22 20 14 20 19 20 22 21 20 20 22 20 15 17 18 17 16 18 18 17 17 17 19 19 19 18 18 15 15 13 10 11 12
10 9 11 9 6 3 8 10 21 21 20 21 18 13 26 20 22 21 19 22 21 20 18 16 14 19 19 17 18 18 16 17 17 18 18 18 17 15 15 14 13 12 12 10
3 4 10 3 7 7 12 23 19 20 19 19 21 22 22 21 19 20 20 20 20 18 16 16 14 17 20 19 17 16 15 16 16 17 14 14 18 15 16 14 14 13 12 9
8 10 7 14 19 17 13 17 20 18 22 18 21 22 21 21 19 18 20 17 17 17 16 15 14 15 20 18 15 10 12 14 16 16 14 15 16 16 13 13 11 10 9 8
6 21 17 16 18 19 13 16 19 19 18 19 18 21 21 19 18 18 18 17 17 18 16 14 13 16 16 15 7 10 13 13 13 15 14 14 11 12 12 11 9 8 8 7
17 20 17 10 9 16 18 17 17 19 17 18 17 21 20 19 18 17 18 17 16 17 12 12 14 16 15 8 4 10 13 13 13 14 13 13 12 11 10 10 10 9 6 6
7 14 13 16 13 17 18 19 16 19 24 18 14 19 20 18 15 17 17 16 16 16 12 7 13 15 16 8 4 10 12 11 11 12 12 11 12 10 10 13 12 10 12 8
10 7 12 16 20 13 16 20 20 19 19 22 22 15 18 18 15 20 17 16 15 15 13 5 5 7 11 13 7 8 10 12 12 13 11 12 11 10 9 8 10 9 11 11
5 8 14 10 17 18 16 22 24 21 19 16 18 18 17 17 19 17 16 16 17 16 16 8 4 2 5 8 11 12 12 19 10 10 10 9 9 8 7 7 6 5 4 6
10 12 14 17 20 21 17 19 24 22 20 18 14 17 17 19 19 17 16 16 17 15 13 7 6 7 2 6 9 9 9 8 9 8 7 8 6 5 5 6 6 6 4 3
17 18 19 20 19 22 21 22 20 22 21 20 19 21 18 18 19 17 16 16 15 13 13 8 7 8 9 5 10 8 8 15 9 6 6 5 5 6 5 5 6 5 5 4
19 22 24 24 22 21 22 20 19 21 23 22 23 21 19 19 18 16 15 15 14 12 13 8 5 9 10 8 10 7 5 7 12 6 6 6 6 7 6 6 6 5 4 4
16 17 18 20 21 23 24 24 22 20 24 24 23 22 19 17 16 17 16 16 13 13 12 7 10 13 10 11 10 5 5 7 7 7 6 6 5 6 6 6 6 5 4 3
17 19 20 20 20 21 21 21 18 23 21 21 21 19 17 17 17 15 15 14 12 12 7 9 17 14 11 12 9 6 7 7 7 5 6 10 7 6 5 5 5 4 4 3
20 18 20 21 21 20 17 20 21 20 19 19 19 18 18 16 14 13 11 11 12 9 6 13 12 10 11 11 14 7 8 8 8 7 6 6 6 5 4 5 4 4 3 2
21 18 19 17 17 19 18 16 17 17 18 18 18 19 17 14 11 10 8 7 1 7 9 18 11 9 7 11 9 7 7 7 7 7 6 5 5 4 4 4 3 3 3 2
17 11 16 16 15 15 16 15 16 15 16 16 16 17 6 6 8 6 5 5 4 14 9 8 8 15 11 16 7 7 7 7 6 5 5 5 5 5 4 3 2 3 3 1
13 13 13 14 13 13 14 14 15 15 15 15 15 15 12 10 7 7 8 10 8 13 8 8 18 21 18 9 8 7 8 8 6 5 5 5 4 5 4 4 3 2 2 1
13 11 10 9 11 11 13 15 14 15 15 15 15 15 11 9 10 9 11 18 19 14 9 11 16 17 14 7 6 6 6 6 5 5 4 6 3 5 5 2 2 1 1 1
11 9 9 10 10 8 11 12 11 13 14 14 16 15 15 11 9 8 9 9 16 10 5 20 18 16 6 6 6 5 5 5 4 4 5 4 3 4 3 1 1 2 3 2
8 7 6 8 7 7 7 8 8 8 9 9 10 10 10 10 11 10 10 14 11 13 8 6 6 7 6 6 5 5 4 4 4 4 5 3 3 3 3 1 1 2 3 1
5 9 6 6 7 7 7 8 8 10 9 8 8 9 9 8 9 9 11 8 7 6 6 6 5 6 5 5 4 3 3 3 4 3 3 3 2 3 2 1 1 2 1 1
Wind_Direction
278 288 289 285 294 282 286 273 265 277 281 286 314 311 300 297 300 306 305 309 308 314 319 322 312 321 322 296 254 216 202 200 201 193 187 182 176 174 174 176 176 177 177 183
289 283 278 290 276 278 271 277 285 280 292 326 289 287 295 303 315 313 309 308 307 313 313 320 320 317 313 307 268 226 210 204 197 192 188 183 176 173 170 171 175 175 179 179
278 281 297 275 263 274 300 294 286 299 303 318 314 304 311 310 300 315 316 317 304 309 304 307 308 315 299 300 300 246 224 207 194 189 189 183 174 173 172 170 170 177 177 177
282 305 258 257 288 295 282 283 301 298 311 301 306 303 311 304 295 302 316 310 305 303 303 306 303 313 297 291 295 260 230 211 196 187 189 183 173 174 171 168 172 174 175 180
251 264 285 279 274 317 319 297 305 340 319 320 320 314 308 306 320 308 299 300 299 297 301 299 301 299 296 296 289 262 228 215 199 187 184 183 177 172 168 165 166 171 174 176
284 279 283 275 302 334 355 289 29 343 313 307 314 310 298 320 313 306 303 298 299 299 298 296 290 298 294 288 278 257 230 216 200 191 183 183 175 166 164 163 166 163 168 179
271 266 265 262 267 251 290 294 321 311 302 301 298 286 293 305 303 303 300 301 303 300 299 301 299 300 297 289 275 264 222 210 197 187 182 177 166 158 158 158 156 165 168 173
244 249 275 198 317 334 287 296 299 297 299 297 293 296 296 303 299 301 301 303 304 298 295 303 301 301 302 291 281 249 205 197 185 178 173 168 161 154 155 152 155 165 168 165
201 236 258 274 299 296 290 294 301 300 301 297 296 296 299 304 305 299 301 301 304 302 295 305 315 307 296 288 276 193 190 175 172 167 168 163 153 148 146 151 156 163 170 172
296 266 263 287 293 294 297 296 297 293 296 299 296 297 303 305 307 306 304 307 309 308 301 315 328 321 299 302 224 169 171 168 161 155 150 152 147 146 143 149 154 161 169 175
257 275 294 273 288 294 303 299 299 295 292 295 297 297 302 302 305 304 304 309 306 305 302 328 345 331 338 327 224 164 161 154 155 137 142 138 134 140 145 156 160 161 174 174
273 292 285 286 302 294 296 294 298 304 302 296 288 298 305 302 300 299 304 307 305 311 302 330 16 345 358 355 138 148 143 145 143 127 133 125 120 110 115 137 150 161 163 168
283 314 312 291 276 283 291 296 299 302 295 298 302 296 299 298 296 299 304 299 299 305 311 286 94 333 24 7 45 114 127 125 117 117 121 119 120 121 119 129 139 159 160 162
249 302 308 299 294 293 297 300 295 294 291 289 290 297 297 297 295 295 299 303 302 302 310 273 132 349 4 30 39 60 74 85 92 96 100 102 108 114 128 139 152 146 176 173
292 293 283 289 294 291 295 300 296 293 299 296 293 297 299 298 291 290 294 299 297 294 301 267 173 157 240 118 90 65 67 65 69 73 79 91 97 107 134 165 154 148 164 170
305 299 301 294 301 299 302 302 296 294 300 292 304 303 298 292 289 287 290 295 292 289 295 274 216 172 144 149 111 109 110 104 99 99 104 120 145 159 158 145 148 168 182 161
311 313 314 309 306 302 300 299 295 294 299 300 303 303 303 298 294 292 292 292 286 291 292 283 211 162 128 139 130 123 126 141 148 135 148 156 156 153 144 149 164 176 168 177
306 299 295 293 296 301 302 300 299 303 306 301 298 298 292 288 287 293 295 296 292 292 289 198 172 140 140 141 132 129 124 134 146 144 140 129 133 145 146 146 154 165 162 155
308 302 303 301 299 297 295 299 303 299 297 293 292 288 290 285 283 282 290 290 291 288 277 148 160 138 137 136 139 137 131 131 122 114 126 137 136 134 138 146 151 145 141 152
310 308 308 303 303 306 309 299 299 297 295 298 298 290 284 279 277 281 284 283 284 275 169 152 139 132 131 139 128 123 120 122 123 123 124 116 133 145 139 141 139 134 126 132
310 309 307 313 319 311 309 311 313 311 309 307 300 289 278 276 273 276 277 280 109 127 117 133 125 121 129 117 98 97 103 109 129 127 123 128 117 116 131 134 130 130 132 156
321 312 314 315 315 318 324 325 328 324 324 322 321 323 274 257 271 270 233 133 104 106 107 100 103 112 112 106 103 102 103 113 111 118 126 131 135 135 129 122 132 134 141 149
324 318 321 332 334 330 332 341 339 340 342 347 354 359 21 40 36 69 77 81 87 100 96 101 119 115 113 99 100 111 117 121 131 132 130 127 131 121 115 115 88 62 77 112
332 338 340 338 335 339 343 344 344 355 0 7 13 14 21 34 41 41 66 80 87 89 102 110 106 107 102 99 105 119 130 138 131 117 120 117 117 114 111 119 151 165 278 324
340 341 344 349 349 344 338 342 356 3 2 10 15 17 21 30 44 44 52 62 63 53 68 102 108 107 95 103 112 120 124 123 131 130 120 119 122 113 119 120 226 210 232 277
336 354 349 349 344 344 344 347 358 3 7 9 15 16 22 26 34 35 42 48 48 52 55 74 83 82 87 95 99 94 101 113 117 123 116 114 132 127 131 134 309 321 325 162
331 347 351 1 356 350 351 4 8 4 8 11 17 12 17 24 33 44 45 42 49 52 55 55 64 86 97 100 107 112 111 103 111 114 111 150 163 149 151 204 263 296 318 353